Dewpoint
37 40 41 41 41 40 39 38 38 38 40 40 40 44 45 46 46 47 48 50 53 57 60 60 60 61 62 62 62 61 61 60 60 58 57 57 59 60 61 62 61 60 58
36 39 40 40 40 40 39 38 37 36 38 39 40 42 44 48 48 48 49 51 54 57 59 59 59 59 61 60 61 60 58 58 58 56 54 53 52 55 58 59 61 61 61
36 38 39 39 39 39 39 38 37 38 39 40 42 44 46 47 48 48 50 53 55 58 60 59 58 58 59 59 59 59 58 57 56 59 56 52 49 51 54 56 58 59 60
36 37 38 38 39 39 38 38 38 39 40 43 44 45 45 46 47 47 49 51 54 56 58 60 58 58 59 59 58 58 57 56 56 56 57 57 56 53 51 53 55 57 58
36 37 37 39 39 37 38 38 38 39 41 43 44 46 48 48 50 49 49 50 56 58 58 58 59 58 58 58 57 57 57 56 58 57 56 57 58 58 56 52 52 54 55
37 38 39 37 35 36 37 37 38 39 41 42 44 46 48 50 50 49 50 51 55 54 53 54 54 54 55 54 54 55 56 56 57 58 59 57 56 55 55 53 53 54 54
37 37 37 34 33 34 36 37 38 38 40 42 44 44 46 49 50 51 52 52 51 49 50 50 50 49 49 50 53 53 52 52 52 51 52 51 55 53 55 55 55 55 56
38 38 38 32 33 34 34 36 37 37 38 41 42 43 44 47 47 46 49 49 47 47 48 49 48 47 46 46 49 48 48 49 49 47 48 48 49 48 48 49 49 51 55
37 38 37 31 32 32 33 35 36 37 38 40 40 41 42 43 44 44 44 45 46 45 45 46 45 44 44 43 44 45 44 46 46 47 46 46 45 46 47 47 47 47 49
37 38 34 30 32 32 33 34 36 36 38 38 39 39 40 40 41 41 41 41 41 40 41 39 39 38 40 39 39 40 39 39 42 41 41 41 41 43 45 46 47 47 45
36 37 34 27 29 30 31 31 32 34 35 37 37 38 38 37 38 38 38 38 38 38 36 35 34 36 35 35 35 35 36 35 36 36 36 37 39 40 40 41 40 40 42
36 37 33 24 26 28 26 28 26 26 28 36 33 35 31 33 32 32 32 32 30 31 31 32 31 34 34 34 34 34 34 34 34 34 34 35 35 36 37 38 38 38 39
32 33 26 24 25 25 24 25 26 25 26 26 27 28 27 29 27 27 28 28 28 28 28 29 30 31 33 33 33 33 33 32 33 33 33 34 34 34 35 35 35 36 37
27 31 27 24 24 24 23 24 25 25 26 26 25 25 26 26 27 27 27 27 27 27 28 28 29 29 32 33 33 32 32 32 32 33 33 33 33 33 33 34 34 34 34
26 31 29 27 25 23 23 23 25 26 25 26 25 25 26 26 26 27 27 27 27 27 28 28 28 28 28 32 32 32 31 31 31 31 32 32 33 34 34 33 33 33 33
26 30 32 28 27 25 23 23 24 26 26 25 25 25 26 26 26 26 27 27 27 27 27 28 28 28 27 32 31 33 31 30 30 30 31 31 32 33 34 34 34 33 32
24 26 30 31 29 27 24 23 24 26 26 25 25 26 26 26 26 26 26 26 26 27 27 27 27 27 27 31 31 32 31 30 29 29 30 30 30 32 31 32 33 33 34
25 27 30 31 30 27 25 23 24 25 26 25 25 26 27 26 26 26 26 26 26 26 26 26 26 26 25 31 31 32 30 29 29 29 28 29 29 28 30 31 32 32 31
27 29 30 32 30 27 25 23 23 24 25 25 26 26 27 26 26 26 25 25 26 26 26 26 25 24 25 31 30 31 29 29 27 27 28 28 28 30 32 31 31 32 31
27 28 30 32 30 27 24 23 23 24 24 25 26 27 27 26 26 25 25 26 26 26 26 24 24 26 25 30 31 31 29 27 27 28 29 29 28 30 32 31 30 30 30
28 29 31 31 30 26 23 23 23 23 24 26 26 27 27 27 26 26 25 26 26 25 24 23 24 25 27 27 30 31 28 28 29 28 27 27 30 31 32 31 28 30 31
29 29 30 31 30 25 23 24 23 24 26 26 26 27 27 27 26 25 25 26 25 24 23 23 24 25 25 28 29 29 29 29 28 27 27 28 30 30 30 29 29 30 29
28 30 31 31 30 26 24 24 25 25 25 25 26 26 27 26 25 24 24 25 24 23 23 24 24 24 25 25 28 28 28 29 28 27 28 30 30 29 28 29 29 29 26
27 28 29 30 30 27 25 25 25 25 24 24 26 26 26 25 23 24 25 24 23 23 24 25 25 24 25 25 25 26 29 27 28 28 28 27 27 27 26 26 26 26 26
28 29 30 30 31 30 26 25 25 25 24 24 25 26 25 26 22 23 24 24 24 25 24 25 26 25 25 26 27 28 27 28 27 27 24 24 24 23 23 23 24 25 25
28 29 30 31 31 31 30 27 26 26 25 25 25 25 24 24 24 24 24 29 29 31 31 30 29 27 27 27 27 27 28 27 27 24 23 23 22 22 22 21 22 22 24
Lifted_Index
10 11 13 14 14 13 12 11 12 12 13 13 11 10 8 7 7 8 8 7 5 4 2 -0 -1 -1 -1 -1 -1 -1 -1 -1 -1 -1 -0 1 2 2 2 2 1 1 1
11 12 13 14 14 13 11 11 12 12 12 12 12 11 9 7 6 7 7 6 4 3 1 -0 -1 -1 -1 -1 -1 -1 -1 -1 -1 -1 0 2 3 3 3 2 2 2 2
12 13 14 14 13 12 11 11 12 12 12 12 12 11 9 7 6 6 6 5 3 1 0 -1 -1 -1 -1 -1 -1 -1 -1 -1 -1 -0 1 2 3 3 3 3 3 3 3
12 13 13 14 14 12 11 11 12 12 11 11 10 9 7 6 4 4 5 4 2 1 -1 -1 -1 -1 -1 -1 -1 -0 -0 -0 -0 0 1 2 3 3 3 3 3 3 3
12 12 13 14 14 13 12 11 12 12 11 11 10 7 5 4 3 3 3 3 1 -0 -1 -2 -2 -1 -1 -1 -0 0 1 0 0 1 1 1 2 3 3 4 3 3 3
11 11 12 13 14 14 13 12 11 11 11 11 10 7 4 3 2 2 2 1 -0 -1 -2 -2 -2 -1 -1 -1 0 1 2 1 1 1 2 2 2 3 3 4 4 3 3
10 11 12 13 14 15 14 12 11 10 10 10 9 8 5 3 2 1 1 0 -0 -1 -1 -1 -1 -1 -1 0 1 2 2 2 2 3 3 3 3 3 3 4 4 3 3
10 10 11 12 13 14 15 14 11 10 9 10 9 8 6 4 2 1 1 0 -0 -1 -1 -1 -0 -0 0 1 2 2 3 3 3 4 4 4 4 3 3 3 3 3 3
10 10 11 12 13 14 15 15 13 11 9 9 9 9 7 6 3 2 1 0 -0 -0 -0 -0 0 1 1 2 3 3 3 4 5 5 5 4 4 4 3 3 3 3 3
10 9 10 11 13 14 15 15 15 13 10 9 8 8 8 6 4 3 1 1 0 0 0 1 1 2 3 3 4 4 4 5 5 5 5 5 6 6 6 6 6 5 4
10 9 9 11 12 14 14 15 15 15 13 10 8 8 7 7 5 4 3 2 2 2 2 2 3 3 4 5 5 6 7 8 8 8 8 8 9 11 12 12 11 10 9
10 10 9 10 11 13 14 14 15 15 15 13 10 8 7 7 6 5 5 4 4 4 4 5 5 6 7 8 9 10 12 13 13 14 14 14 14 15 16 16 15 15 14
10 10 9 9 10 12 13 14 14 15 15 15 13 11 9 9 9 8 9 9 9 9 9 9 9 11 13 14 14 15 16 16 17 17 17 17 17 17 17 16 16 16 16
10 10 10 9 9 11 12 13 14 14 15 15 15 14 14 13 13 13 14 14 15 15 14 14 15 16 17 18 18 18 18 18 18 18 18 18 18 17 17 17 17 17 17
10 10 10 10 9 10 11 13 14 15 15 15 16 16 16 16 16 17 17 17 17 17 18 18 18 18 18 18 18 18 18 18 18 18 18 18 18 18 17 17 17 17 17
11 11 11 11 10 10 11 13 14 15 16 16 16 16 17 17 17 18 18 18 18 18 18 18 18 18 18 18 18 18 18 18 18 18 18 18 18 18 18 18 18 18 18
12 12 12 12 11 11 11 12 14 16 16 16 16 17 17 17 18 18 18 18 18 18 18 18 18 18 19 19 19 19 18 18 18 18 18 19 19 19 19 19 19 19 19
13 13 13 13 13 12 12 12 13 15 16 17 17 17 17 17 18 18 18 19 19 19 19 19 19 19 19 19 19 19 19 19 19 19 19 19 19 20 20 20 20 19 19
13 13 14 14 13 13 12 12 13 14 15 17 17 17 17 17 18 18 18 19 19 19 19 19 19 19 19 20 20 19 19 18 18 19 19 20 20 20 20 20 20 20 20
14 14 14 14 14 13 12 12 12 13 15 16 17 18 18 18 18 18 18 19 19 19 19 19 19 19 19 20 20 19 19 18 18 18 19 20 20 20 20 20 20 20 20
14 14 14 14 14 14 13 13 12 13 14 16 17 18 18 18 18 18 18 18 18 19 19 19 19 19 20 20 20 20 19 18 18 18 19 20 20 20 20 20 19 19 19
14 14 14 14 14 14 14 13 13 13 14 15 17 17 18 18 18 18 18 18 18 18 18 18 18 19 19 20 20 20 20 19 19 19 20 21 21 20 19 19 18 17 17
13 13 13 13 13 14 14 13 13 14 14 14 15 17 17 18 18 18 18 17 17 17 17 18 18 18 19 19 19 20 20 20 20 21 21 21 20 19 18 17 16 16 16
12 12 12 12 12 13 13 13 13 13 13 13 14 15 16 17 17 17 17 17 17 17 17 17 17 17 18 18 19 20 20 21 21 21 21 20 19 18 16 16 16 16 16
11 12 12 12 12 12 12 13 13 13 13 13 13 14 15 16 16 17 17 17 17 17 17 18 17 17 17 18 19 20 20 21 21 20 20 19 17 16 16 15 15 15 16
11 12 12 12 11 11 12 12 12 13 12 12 13 14 15 15 16 16 16 17 18 18 18 18 18 18 18 19 20 20 21 21 21 20 19 17 16 16 16 15 15 15 15